Wind_Speed
15 14 11 9 7 5 4 4 4 1 2 4 4 16 29 30 29 28 30 28 28 30 27 28 29 29 30 31 30 29 31 31 31 30 28 24 24 24
15 12 11 10 8 6 3 2 2 5 3 4 10 22 25 27 23 24 27 25 28 27 27 29 30 31 32 30 29 30 30 27 28 29 28 23 24 27
15 13 11 7 6 4 2 0 1 1 4 8 15 21 23 27 28 30 29 28 26 24 28 31 33 32 31 32 33 34 33 31 28 27 25 24 27 27
16 14 8 7 4 3 1 1 2 3 4 8 18 19 25 25 27 29 30 26 25 28 29 31 30 32 34 34 34 32 29 26 29 26 26 27 27 28
16 10 6 5 6 3 0 2 4 4 6 11 12 20 22 23 27 25 26 26 27 27 30 28 32 34 34 32 31 28 26 26 26 27 28 30 31 31
13 8 6 7 6 3 1 3 4 6 11 14 15 19 19 24 24 25 26 25 30 32 25 28 32 32 31 29 31 29 27 28 29 30 30 30 34 39
6 7 9 7 5 2 2 3 6 8 10 13 15 16 18 23 22 23 25 32 30 20 24 33 32 35 35 33 31 28 32 31 28 31 38 41 37 35
12 13 10 10 5 3 3 3 5 8 7 10 10 14 18 21 23 23 25 27 11 21 36 35 33 36 35 33 32 31 29 27 31 40 37 36 36 34
15 13 11 10 7 5 4 4 3 4 7 9 14 18 18 22 23 23 22 24 25 32 29 31 31 34 37 38 29 22 31 31 38 35 34 34 32 27
15 13 13 10 7 5 4 3 3 5 7 8 11 15 18 20 21 20 25 26 24 24 27 15 33 32 40 31 22 29 36 36 34 34 29 27 23 24
15 15 12 10 8 4 3 2 4 7 8 8 9 13 14 15 16 21 20 21 16 22 16 23 24 35 30 26 27 37 37 36 35 32 26 24 21 18
16 14 12 9 7 6 5 2 5 9 14 11 7 11 14 16 18 17 19 17 19 8 15 21 23 23 11 15 38 35 40 36 35 30 25 21 17 13
22 17 11 10 8 7 5 2 4 8 11 14 9 11 14 17 20 18 16 16 14 11 24 23 18 22 15 28 25 29 36 34 37 34 27 18 9 11
21 15 11 11 8 7 5 3 3 5 10 9 10 12 15 18 21 19 15 14 12 11 18 21 13 21 18 16 14 30 37 33 36 36 35 16 7 13
17 13 14 13 8 7 4 1 3 5 9 8 10 12 14 15 17 21 16 15 12 13 15 18 20 21 21 15 21 22 26 25 38 34 33 31 24 37
16 16 13 10 9 5 3 1 3 5 8 8 9 13 14 15 18 18 14 16 14 18 19 16 17 20 25 24 20 24 27 14 30 31 28 39 34 31
20 18 15 13 10 8 3 1 2 5 9 9 10 13 13 14 15 17 17 14 9 12 19 23 23 13 12 31 19 24 26 27 30 28 32 41 43 35
20 20 17 14 11 8 3 0 2 6 9 9 10 12 14 14 16 16 17 13 12 13 16 21 22 19 7 14 32 26 28 26 27 30 33 40 41 40
17 18 16 14 11 7 3 2 3 7 7 7 9 11 12 13 15 14 13 13 17 14 18 20 21 13 3 4 18 33 26 27 26 33 31 35 34 31
16 18 16 13 11 8 7 6 4 4 7 6 8 10 12 12 13 13 14 13 15 13 16 18 22 23 13 4 7 24 34 29 26 24 26 34 40 46
18 15 12 12 11 9 9 8 8 7 7 8 7 7 9 11 13 12 11 13 11 8 13 12 12 10 6 8 10 21 31 29 27 25 21 30 30 35
14 13 14 12 11 10 9 9 8 9 8 8 6 8 8 9 10 11 10 11 11 5 9 8 7 7 18 16 14 15 23 31 33 31 24 17 10 8
14 13 11 15 14 13 11 11 11 11 9 9 7 6 8 9 10 11 12 10 5 1 5 9 10 10 15 18 20 19 22 24 26 37 40 36 37 37
Wind_Direction
173 169 164 156 170 165 179 197 186 249 279 274 302 314 325 331 335 334 333 333 329 328 325 321 319 316 315 314 312 310 304 298 297 298 288 280 278 284
165 160 153 154 152 149 160 179 173 185 247 276 296 317 331 333 337 330 334 325 325 319 320 316 317 318 318 316 314 314 312 305 301 296 293 287 286 284
158 152 151 169 160 176 178 234 333 333 238 289 309 325 331 339 338 339 337 329 320 320 318 317 317 319 319 318 312 308 305 302 299 299 300 289 285 281
152 149 137 187 195 209 230 353 7 1 342 292 319 327 339 344 329 331 336 325 317 314 319 320 323 322 314 313 311 311 309 306 305 300 297 291 285 280
150 136 171 224 234 203 117 343 351 337 341 337 314 331 343 334 329 329 328 320 318 320 322 322 324 319 316 313 315 314 315 309 306 303 297 292 287 283
131 133 219 229 219 176 310 330 325 329 340 341 337 340 335 333 330 328 328 329 326 325 328 328 321 320 318 314 316 312 313 312 310 305 300 295 291 289
157 189 202 210 178 171 267 294 319 336 337 344 346 330 330 331 331 332 326 324 326 335 335 328 324 323 325 317 312 311 312 312 309 303 302 299 289 284
179 183 186 194 194 227 254 286 320 325 342 342 336 322 319 321 322 327 327 325 325 332 332 322 325 321 321 318 312 316 315 315 312 311 303 298 293 288
187 182 198 205 216 231 248 278 308 333 351 342 329 329 316 323 321 324 325 321 315 317 325 317 325 318 323 320 329 325 332 323 317 312 308 302 297 287
188 199 206 211 226 229 269 291 324 350 5 351 329 329 327 334 333 333 324 316 317 328 335 313 328 322 325 333 334 329 328 328 326 321 317 310 304 291
186 206 205 210 217 218 226 265 336 5 12 342 343 342 337 335 342 341 328 321 322 330 346 338 331 324 326 322 331 334 336 337 333 333 328 313 306 287
189 194 201 206 209 205 231 249 338 2 353 346 339 341 344 351 356 347 333 320 326 321 347 339 335 345 319 321 329 338 342 352 344 344 331 314 298 258
183 190 196 183 189 208 217 258 341 344 345 343 336 341 348 356 351 347 335 340 327 314 342 354 330 340 320 312 324 342 347 351 350 353 349 330 274 208
182 185 183 176 183 188 199 240 300 332 346 354 336 324 343 349 348 345 338 346 347 344 355 6 340 345 324 316 335 336 347 356 357 356 4 20 130 144
177 176 166 174 178 195 208 265 12 16 353 346 327 325 335 342 348 348 348 356 8 7 11 3 8 8 347 327 332 337 346 349 3 6 14 49 93 117
168 166 168 162 167 189 186 57 27 4 350 338 324 328 332 342 341 356 337 334 349 359 16 8 346 11 13 358 345 348 356 352 1 21 33 55 68 92
165 169 169 174 187 192 181 76 9 355 352 347 337 338 339 340 332 355 0 346 352 360 360 359 7 338 358 23 0 0 4 5 16 31 50 57 52 69
175 177 179 184 188 188 169 45 354 347 346 351 343 341 340 340 338 344 357 345 348 4 11 3 359 358 12 26 22 9 19 17 30 47 60 71 62 63
191 187 190 193 198 197 185 243 325 350 348 340 341 335 335 341 348 348 348 338 346 17 25 16 18 23 27 9 11 34 26 23 45 56 66 75 76 74
199 196 199 203 207 212 218 231 253 313 344 325 333 325 333 342 347 341 345 337 341 23 41 53 54 57 52 25 349 35 44 35 38 54 68 83 86 93
205 204 208 214 213 224 231 242 253 267 297 325 326 318 330 348 349 345 345 338 340 32 64 68 18 11 35 69 52 42 46 54 54 58 68 73 75 80
210 209 214 218 216 225 235 244 250 259 272 299 309 314 324 334 337 342 343 335 337 25 86 77 36 58 90 79 46 59 51 61 63 61 59 70 79 77
220 224 230 222 226 233 233 243 261 272 278 275 292 281 308 327 341 342 339 327 335 280 113 86 83 98 102 96 85 72 74 69 70 72 72 89 100 105
Height
797 800 802 805 809 810 812 813 815 817 814 807 806 802 800 797 792 787 784 780 777 773 768 764 760 757 751 747 742 738 733 730 727 723 720 718 717 716
797 800 802 804 808 808 811 812 813 813 813 807 804 801 799 795 791 788 783 779 774 770 764 759 754 750 745 739 735 731 727 723 720 716 713 710 709 709
796 798 802 807 806 808 809 811 811 811 810 805 802 799 796 791 787 784 778 774 770 765 760 756 750 744 739 734 729 725 720 716 713 711 707 704 703 702
792 797 800 807 806 807 808 809 810 808 807 804 798 796 791 787 785 779 774 772 768 761 755 750 745 739 734 728 723 718 713 709 706 704 701 697 695 693
788 792 803 805 808 805 806 808 808 807 804 802 799 793 788 786 782 776 771 768 763 757 750 746 741 734 726 721 716 711 707 703 700 697 693 690 686 683
788 789 800 803 805 804 806 807 806 803 799 797 794 790 787 785 780 774 766 765 758 752 746 741 734 728 720 714 710 705 701 697 694 690 685 681 677 674
790 792 797 802 802 802 804 805 803 800 797 794 790 788 786 783 779 773 767 761 755 748 742 736 728 721 714 708 704 699 695 691 687 682 677 672 666 663
790 794 796 800 798 801 802 802 801 799 795 792 791 789 787 784 780 774 769 763 750 746 738 730 727 717 710 705 700 693 688 685 681 673 666 660 654 651
793 792 796 797 798 798 801 801 799 798 794 791 789 788 786 783 778 772 769 764 756 746 740 729 724 715 707 701 694 688 684 679 673 664 656 648 642 638
787 793 794 796 798 797 798 800 798 795 792 789 788 786 784 780 777 772 768 762 754 746 740 730 723 713 705 699 693 687 680 672 664 655 646 638 634 628
785 791 792 794 795 796 798 798 797 792 788 786 785 784 782 779 774 769 767 759 749 740 736 732 722 710 703 694 690 684 676 666 657 646 638 631 628 622
783 789 790 790 793 795 797 796 794 788 785 783 782 782 779 775 772 770 766 759 750 738 735 730 720 715 702 693 690 683 673 663 652 642 633 628 623 619
779 784 785 789 791 793 794 793 790 786 783 781 780 780 777 773 772 770 766 758 752 747 741 735 727 720 717 703 692 684 675 664 653 641 630 622 615 619
774 779 783 788 790 792 792 791 788 784 781 781 781 779 775 773 771 768 764 758 752 746 741 736 732 725 718 708 700 687 676 668 659 646 633 622 616 614
772 777 782 786 788 790 790 789 785 782 782 782 782 780 775 771 770 766 763 756 751 748 742 736 734 728 722 718 712 698 684 674 666 656 644 635 635 634
772 777 781 783 786 788 788 786 784 783 784 783 782 779 774 771 769 766 761 756 747 743 739 735 732 729 723 720 716 705 695 688 677 668 659 647 646 646
771 776 778 781 784 786 784 783 783 784 783 782 781 778 774 772 769 765 760 758 751 743 739 738 733 731 727 724 717 712 705 693 685 678 669 662 662 665
772 774 776 780 782 782 781 781 783 782 781 781 781 779 777 774 769 765 762 760 754 745 738 738 734 733 730 728 727 717 712 706 699 690 686 680 685 689
770 772 774 776 778 778 778 780 781 780 780 780 779 779 778 774 769 764 763 762 757 750 745 743 739 737 736 738 735 730 722 717 713 708 704 702 704 712
767 769 770 773 774 775 777 777 777 778 779 778 776 779 777 773 769 767 764 762 758 751 746 747 749 747 743 744 742 740 734 726 721 720 720 719 720 722
764 766 767 770 771 773 774 775 775 777 778 776 775 775 776 773 770 767 764 765 758 751 748 749 755 754 750 747 747 745 743 742 737 731 730 726 728 732
760 762 765 767 769 771 772 773 775 776 775 775 776 776 774 771 769 767 762 762 763 756 754 753 757 758 755 753 754 752 752 749 745 741 741 741 743 749
757 760 762 764 767 768 769 771 773 774 773 773 773 774 773 770 767 767 766 763 758 758 756 757 759 762 761 761 760 760 760 758 758 755 757 758 760 763